| time (UTC) | temp F | wind direction | speed knots | gust knots | rain 1hr in | rain 24hr in | rain mn in | humidity % | barometer mb |
| 20260504010714 | 83 | 147 | 1.7 | 2.6 | 0.00 | 0.00 | 0.00 | 39 | 1011.1 |
| 20260504010210 | 84 | 224 | 0.9 | 0.9 | 0.00 | 0.00 | 0.00 | 39 | 1011.1 |
| 20260504005706 | 84 | 192 | 0.0 | 1.7 | 0.00 | 0.00 | 0.00 | 40 | 1010.9 |
| 20260504005203 | 84 | 57 | 1.7 | 2.6 | 0.00 | 0.00 | 0.00 | 39 | 1011.0 |
| 20260504004702 | 85 | 202 | 0.0 | 0.0 | 0.00 | 0.00 | 0.00 | 39 | 1011.0 |
| 20260504004158 | 86 | 222 | 0.0 | 2.6 | 0.00 | 0.00 | 0.00 | 37 | 1011.1 |
| 20260504003654 | 86 | 226 | 0.0 | 0.0 | 0.00 | 0.00 | 0.00 | 38 | 1011.3 |
| 20260504003151 | 86 | 248 | 0.0 | 0.0 | 0.00 | 0.00 | 0.00 | 40 | 1011.1 |
| 20260504002648 | 85 | 210 | 0.0 | 0.9 | 0.00 | 0.00 | 0.00 | 39 | 1011.3 |
| 20260504002145 | 85 | 221 | 0.9 | 1.7 | 0.00 | 0.00 | 0.00 | 38 | 1011.2 |
| 20260504001643 | 85 | 230 | 0.0 | 0.9 | 0.00 | 0.00 | 0.00 | 42 | 1011.3 |
| 20260504001139 | 85 | 8 | 1.7 | 2.6 | 0.00 | 0.00 | 0.00 | 38 | 1011.2 |
| 20260504000636 | 84 | 211 | 0.0 | 0.9 | 0.00 | 0.00 | 0.00 | 42 | 1011.4 |
| 20260504000134 | 84 | 207 | 0.0 | 1.7 | 0.00 | 0.00 | 0.00 | 41 | 1011.5 |
| 20260503235632 | 85 | 221 | 1.7 | 1.7 | 0.00 | 0.00 | 0.00 | 39 | 1011.5 |
| 20260503235128 | 84 | 223 | 0.0 | 0.0 | 0.00 | 0.00 | 0.00 | 42 | 1011.7 |
| 20260503234626 | 84 | 53 | 0.9 | 4.3 | 0.00 | 0.00 | 0.00 | 40 | 1011.4 |
| 20260503234124 | 83 | 187 | 0.9 | 1.7 | 0.00 | 0.00 | 0.00 | 40 | 1011.6 |
| 20260503233621 | 82 | 208 | 0.0 | 1.7 | 0.00 | 0.00 | 0.00 | 44 | 1011.7 |
| 20260503233116 | 84 | 225 | 0.9 | 2.6 | 0.00 | 0.00 | 0.00 | 41 | 1011.8 |
| 20260503232613 | 85 | 233 | 0.9 | 1.7 | 0.00 | 0.00 | 0.00 | 41 | 1012.2 |
| 20260503232111 | 84 | 162 | 1.7 | 2.6 | 0.00 | 0.00 | 0.00 | 42 | 1011.9 |
| 20260503231609 | 84 | 208 | 0.0 | 1.7 | 0.00 | 0.00 | 0.00 | 43 | 1011.9 |
| 20260503231105 | 84 | 217 | 1.7 | 2.6 | 0.00 | 0.00 | 0.00 | 39 | 1012.1 |
| 20260503230602 | 85 | 57 | 1.7 | 4.3 | 0.00 | 0.00 | 0.00 | 37 | 1012.0 |
| 20260503230059 | 84 | 222 | 0.9 | 0.9 | 0.00 | 0.00 | 0.00 | 39 | 1012.0 |
| 20260503225556 | 84 | 219 | 1.7 | 4.3 | 0.00 | 0.00 | 0.00 | 41 | 1012.0 |
| 20260503225051 | 84 | 36 | 2.6 | 5.2 | 0.00 | 0.00 | 0.00 | 38 | 1012.2 |
| 20260503224549 | 84 | 43 | 2.6 | 5.2 | 0.00 | 0.00 | 0.00 | 38 | 1012.2 |
| 20260503224047 | 84 | 197 | 0.0 | 2.6 | 0.00 | 0.00 | 0.00 | 43 | 1012.3 |
| 20260503223544 | 85 | 208 | 1.7 | 1.7 | 0.00 | 0.00 | 0.00 | 40 | 1012.5 |
| 20260503223039 | 83 | 207 | 0.9 | 1.7 | 0.00 | 0.00 | 0.00 | 40 | 1012.3 |
| 20260503222538 | 82 | 214 | 1.7 | 5.2 | 0.00 | 0.00 | 0.00 | 41 | 1012.5 |
| 20260503222036 | 83 | 83 | 2.6 | 4.3 | 0.00 | 0.00 | 0.00 | 41 | 1012.8 |
| 20260503221533 | 82 | 68 | 0.9 | 4.3 | 0.00 | 0.00 | 0.00 | 42 | 1012.8 |
| 20260503221031 | 83 | 147 | 1.7 | 6.1 | 0.00 | 0.00 | 0.00 | 41 | 1012.9 |
| 20260503220527 | 84 | 232 | 0.0 | 1.7 | 0.00 | 0.00 | 0.00 | 39 | 1012.9 |
| 20260503220024 | 84 | 216 | 0.0 | 2.6 | 0.00 | 0.00 | 0.00 | 42 | 1012.8 |
| 20260503215521 | 84 | 245 | 0.9 | 2.6 | 0.00 | 0.00 | 0.00 | 40 | 1012.6 |
| 20260503215018 | 85 | 231 | 0.9 | 2.6 | 0.00 | 0.00 | 0.00 | 37 | 1012.9 |
| 20260503214516 | 84 | 224 | 0.0 | 2.6 | 0.00 | 0.00 | 0.00 | 38 | 1013.1 |
| 20260503214012 | 84 | 212 | 0.9 | 2.6 | 0.00 | 0.00 | 0.00 | 39 | 1012.9 |
| 20260503213511 | 84 | 214 | 1.7 | 4.3 | 0.00 | 0.00 | 0.00 | 41 | 1012.9 |
| 20260503213007 | 84 | 46 | 2.6 | 2.6 | 0.00 | 0.00 | 0.00 | 37 | 1013.1 |
| 20260503212505 | 84 | 219 | 0.9 | 1.7 | 0.00 | 0.00 | 0.00 | 40 | 1013.3 |
| 20260503212002 | 83 | 245 | 0.9 | 1.7 | 0.00 | 0.00 | 0.00 | 40 | 1013.1 |
| 20260503211458 | 81 | 236 | 0.9 | 1.7 | 0.00 | 0.00 | 0.00 | 45 | 1013.2 |
| 20260503210949 | 81 | 195 | 1.7 | 2.6 | 0.00 | 0.00 | 0.00 | 43 | 1013.0 |
| 20260503210446 | 80 | 27 | 2.6 | 4.3 | 0.00 | 0.00 | 0.00 | 43 | 1013.3 |
| 20260503205945 | 81 | 7 | 2.6 | 5.2 | 0.00 | 0.00 | 0.00 | 41 | 1013.4 |
| 20260503205443 | 82 | 212 | 0.0 | 0.9 | 0.00 | 0.00 | 0.00 | 46 | 1013.4 |
| 20260503204939 | 81 | 198 | 0.0 | 1.7 | 0.00 | 0.00 | 0.00 | 45 | 1013.7 |
| 20260503204436 | 80 | 210 | 0.0 | 1.7 | 0.00 | 0.00 | 0.00 | 44 | 1013.6 |
| 20260503203933 | 80 | 206 | 1.7 | 2.6 | 0.00 | 0.00 | 0.00 | 43 | 1013.5 |
| 20260503203431 | 79 | 186 | 0.9 | 2.6 | 0.00 | 0.00 | 0.00 | 44 | 1013.6 |
| 20260503202927 | 78 | 193 | 0.9 | 2.6 | 0.00 | 0.00 | 0.00 | 44 | 1013.6 |
| 20260503202426 | 78 | 6 | 3.5 | 4.3 | 0.00 | 0.00 | 0.00 | 44 | 1013.7 |
| 20260503201924 | 78 | 213 | 0.0 | 4.3 | 0.00 | 0.00 | 0.00 | 46 | 1013.7 |
| 20260503201421 | 79 | 40 | 1.7 | 1.7 | 0.00 | 0.00 | 0.00 | 44 | 1013.8 |
| 20260503200918 | 78 | 191 | 0.0 | 2.6 | 0.00 | 0.00 | 0.00 | 46 | 1013.9 |
| 20260503200414 | 79 | 220 | 0.9 | 2.6 | 0.00 | 0.00 | 0.00 | 47 | 1014.0 |
| 20260503195911 | 77 | 208 | 0.0 | 1.7 | 0.00 | 0.00 | 0.00 | 48 | 1013.9 |
| 20260503195409 | 77 | 196 | 0.9 | 1.7 | 0.00 | 0.00 | 0.00 | 46 | 1014.0 |
| 20260503194905 | 76 | 224 | 0.9 | 2.6 | 0.00 | 0.00 | 0.00 | 48 | 1014.0 |
| 20260503194401 | 76 | 262 | 0.9 | 5.2 | 0.00 | 0.00 | 0.00 | 49 | 1014.1 |
| 20260503193857 | 77 | 35 | 2.6 | 6.1 | 0.00 | 0.00 | 0.00 | 46 | 1014.2 |
| 20260503193353 | 77 | 215 | 0.9 | 1.7 | 0.00 | 0.00 | 0.00 | 46 | 1014.3 |
| 20260503192849 | 76 | 220 | 0.9 | 1.7 | 0.00 | 0.00 | 0.00 | 51 | 1014.4 |
| 20260503192345 | 76 | 193 | 0.0 | 0.0 | 0.00 | 0.00 | 0.00 | 51 | 1014.5 |
| 20260503191841 | 75 | 209 | 0.0 | 0.0 | 0.00 | 0.00 | 0.00 | 50 | 1014.3 |
| 20260503191338 | 75 | 215 | 0.0 | 0.0 | 0.00 | 0.00 | 0.00 | 52 | 1014.7 |
| 20260503190835 | 75 | 197 | 0.0 | 0.0 | 0.00 | 0.00 | 0.00 | 52 | 1014.7 |
| 20260503190332 | 74 | 224 | 0.0 | 0.0 | 0.00 | 0.00 | 0.00 | 54 | 1014.6 |
| 20260503185829 | 73 | 204 | 0.0 | 0.0 | 0.00 | 0.00 | 0.00 | 55 | 1014.6 |
| 20260503185325 | 74 | 160 | 0.0 | 0.0 | 0.00 | 0.00 | 0.00 | 54 | 1014.7 |
| 20260503184820 | 73 | 223 | 0.0 | 0.0 | 0.00 | 0.00 | 0.00 | 55 | 1014.8 |
| 20260503184316 | 73 | 221 | 0.0 | 0.0 | 0.00 | 0.00 | 0.00 | 58 | 1014.8 |
| 20260503183812 | 73 | 215 | 0.0 | 0.0 | 0.00 | 0.00 | 0.00 | 57 | 1014.8 |
| 20260503183309 | 73 | 222 | 0.0 | 0.0 | 0.00 | 0.00 | 0.00 | 59 | 1014.6 |
| 20260503182807 | 72 | 348 | 0.0 | 0.0 | 0.00 | 0.00 | 0.00 | 61 | 1014.8 |
| 20260503182306 | 72 | 218 | 0.0 | 0.0 | 0.00 | 0.00 | 0.00 | 62 | 1014.8 |
| 20260503181803 | 71 | 214 | 0.0 | 0.0 | 0.00 | 0.00 | 0.00 | 60 | 1014.8 |
| 20260503181300 | 71 | 191 | 0.0 | 0.0 | 0.00 | 0.00 | 0.00 | 60 | 1014.9 |
| 20260503180756 | 70 | 212 | 0.0 | 0.0 | 0.00 | 0.00 | 0.00 | 63 | 1014.7 |
| 20260503180254 | 70 | 217 | 0.0 | 0.0 | 0.00 | 0.00 | 0.00 | 67 | 1014.9 |
| 20260503175750 | 69 | 272 | 0.0 | 0.0 | 0.00 | 0.00 | 0.00 | 65 | 1015.1 |
| 20260503175248 | 69 | 47 | 0.0 | 0.0 | 0.00 | 0.00 | 0.00 | 64 | 1015.0 |
| 20260503174744 | 68 | 210 | 0.0 | 0.0 | 0.00 | 0.00 | 0.00 | 66 | 1015.0 |
| 20260503174242 | 68 | 212 | 0.0 | 0.0 | 0.00 | 0.00 | 0.00 | 65 | 1015.1 |
| 20260503173736 | 68 | 354 | 0.0 | 0.0 | 0.00 | 0.00 | 0.00 | 65 | 1015.0 |
| 20260503173233 | 68 | 205 | 0.0 | 0.0 | 0.00 | 0.00 | 0.00 | 67 | 1015.1 |
| 20260503172730 | 67 | 208 | 0.0 | 0.0 | 0.00 | 0.00 | 0.00 | 68 | 1015.0 |
| 20260503172227 | 67 | 197 | 0.0 | 0.0 | 0.00 | 0.00 | 0.00 | 65 | 1015.2 |
| 20260503171723 | 66 | 216 | 0.0 | 0.0 | 0.00 | 0.00 | 0.00 | 68 | 1015.0 |
| 20260503171221 | 66 | 235 | 0.0 | 0.0 | 0.00 | 0.00 | 0.00 | 68 | 1015.3 |
| 20260503170718 | 66 | 200 | 0.0 | 0.0 | 0.00 | 0.00 | 0.00 | 67 | 1015.2 |
| 20260503170215 | 66 | 195 | 0.0 | 0.0 | 0.00 | 0.00 | 0.00 | 67 | 1015.5 |
| 20260503160136 | 62 | 214 | 0.0 | 0.0 | 0.00 | 0.00 | 0.00 | 80 | 1015.4 |
| 20260503150606 | 57 | 208 | 0.0 | 0.0 | 0.00 | 0.00 | 0.00 | 90 | 1015.2 |
| 20260503130955 | 51 | 202 | 0.0 | 0.0 | 0.00 | 0.00 | 0.00 | 94 | 1015.4 |
| 20260503130453 | 51 | 202 | 0.0 | 0.0 | 0.00 | 0.00 | 0.00 | 94 | 1015.3 |
| 20260503110338 | 52 | 202 | 0.0 | 0.0 | 0.00 | 0.00 | 0.00 | 88 | 1015.4 |
| 20260503090218 | 55 | 202 | 0.0 | 0.0 | 0.00 | 0.00 | 0.00 | 80 | 1016.0 |
| 20260503081145 | 56 | 202 | 0.0 | 0.0 | 0.00 | 0.00 | 0.00 | 77 | 1015.9 |
| 20260503080641 | 57 | 202 | 0.0 | 0.0 | 0.00 | 0.00 | 0.00 | 76 | 1015.8 |
| 20260503080138 | 57 | 202 | 0.0 | 0.0 | 0.00 | 0.00 | 0.00 | 75 | 1015.9 |
| 20260503072614 | 58 | 202 | 0.0 | 0.0 | 0.00 | 0.00 | 0.00 | 72 | 1015.8 |
| 20260503072111 | 58 | 202 | 0.0 | 0.0 | 0.00 | 0.00 | 0.00 | 72 | 1015.9 |
| 20260503071608 | 59 | 202 | 0.0 | 0.0 | 0.00 | 0.00 | 0.00 | 71 | 1015.7 |
| 20260503071105 | 59 | 202 | 0.0 | 0.0 | 0.00 | 0.00 | 0.00 | 69 | 1015.7 |
| 20260503070601 | 60 | 202 | 0.0 | 0.0 | 0.00 | 0.00 | 0.00 | 68 | 1015.9 |
| 20260503055021 | 62 | 203 | 0.0 | 0.0 | 0.00 | 0.00 | 0.00 | 60 | 1015.6 |
| 20260503054517 | 63 | 202 | 0.0 | 0.0 | 0.00 | 0.00 | 0.00 | 59 | 1015.5 |
| 20260503054014 | 63 | 202 | 0.0 | 0.0 | 0.00 | 0.00 | 0.00 | 59 | 1015.5 |
| 20260503053512 | 63 | 202 | 0.0 | 0.0 | 0.00 | 0.00 | 0.00 | 59 | 1015.7 |
| 20260503053010 | 63 | 206 | 0.0 | 0.0 | 0.00 | 0.00 | 0.00 | 59 | 1015.6 |
| 20260503052506 | 63 | 201 | 0.0 | 0.0 | 0.00 | 0.00 | 0.00 | 60 | 1015.5 |
| 20260503052002 | 63 | 202 | 0.0 | 0.0 | 0.00 | 0.00 | 0.00 | 59 | 1015.5 |
| 20260503051458 | 63 | 202 | 0.0 | 0.0 | 0.00 | 0.00 | 0.00 | 60 | 1015.6 |
| 20260503050956 | 63 | 202 | 0.0 | 0.0 | 0.00 | 0.00 | 0.00 | 59 | 1015.7 |
| 20260503050451 | 64 | 202 | 0.0 | 0.0 | 0.00 | 0.00 | 0.00 | 57 | 1015.5 |
| 20260503045949 | 64 | 202 | 0.0 | 0.0 | 0.00 | 0.00 | 0.00 | 58 | 1015.6 |
| 20260503045446 | 64 | 202 | 0.0 | 0.0 | 0.00 | 0.00 | 0.00 | 57 | 1015.5 |
| 20260503044943 | 65 | 202 | 0.0 | 0.9 | 0.00 | 0.00 | 0.00 | 58 | 1015.5 |
| 20260503044440 | 64 | 199 | 0.0 | 0.9 | 0.00 | 0.00 | 0.00 | 56 | 1015.4 |
| 20260503043938 | 64 | 200 | 0.0 | 0.0 | 0.00 | 0.00 | 0.00 | 58 | 1015.2 |
| 20260503043433 | 64 | 199 | 0.0 | 0.0 | 0.00 | 0.00 | 0.00 | 58 | 1015.4 |
| 20260503042930 | 64 | 203 | 0.0 | 0.0 | 0.00 | 0.00 | 0.00 | 59 | 1015.5 |
| 20260503042427 | 63 | 202 | 0.0 | 0.0 | 0.00 | 0.00 | 0.00 | 60 | 1015.3 |
| 20260503041924 | 64 | 203 | 0.0 | 0.0 | 0.00 | 0.00 | 0.00 | 60 | 1015.4 |
| 20260503041420 | 64 | 203 | 0.0 | 0.0 | 0.00 | 0.00 | 0.00 | 62 | 1015.3 |
| 20260503040918 | 64 | 202 | 0.0 | 0.0 | 0.00 | 0.00 | 0.00 | 62 | 1015.3 |
| 20260503040415 | 65 | 202 | 0.0 | 0.0 | 0.00 | 0.00 | 0.00 | 61 | 1015.3 |
| 20260503035912 | 64 | 208 | 0.0 | 0.0 | 0.00 | 0.00 | 0.00 | 63 | 1015.2 |
| 20260503035409 | 64 | 219 | 0.0 | 0.9 | 0.00 | 0.00 | 0.00 | 62 | 1015.1 |
| 20260503034906 | 65 | 194 | 0.0 | 0.0 | 0.00 | 0.00 | 0.00 | 64 | 1015.0 |
| 20260503034404 | 65 | 194 | 0.0 | 0.0 | 0.00 | 0.00 | 0.00 | 64 | 1014.8 |
| 20260503033901 | 66 | 194 | 0.0 | 0.0 | 0.00 | 0.00 | 0.00 | 64 | 1014.7 |
| 20260503033358 | 66 | 194 | 0.0 | 0.0 | 0.00 | 0.00 | 0.00 | 63 | 1014.7 |
| 20260503032856 | 67 | 194 | 0.0 | 0.0 | 0.00 | 0.00 | 0.00 | 62 | 1014.7 |
| 20260503032355 | 68 | 194 | 0.0 | 0.0 | 0.00 | 0.00 | 0.00 | 60 | 1014.8 |
| 20260503031852 | 68 | 194 | 0.0 | 0.9 | 0.00 | 0.00 | 0.00 | 58 | 1014.6 |
| 20260503031349 | 69 | 195 | 0.0 | 0.0 | 0.00 | 0.00 | 0.00 | 58 | 1014.4 |
| 20260503030845 | 70 | 198 | 0.0 | 0.0 | 0.00 | 0.00 | 0.00 | 57 | 1014.4 |
| 20260503030342 | 70 | 199 | 0.0 | 0.0 | 0.00 | 0.00 | 0.00 | 56 | 1014.4 |
| 20260503025838 | 71 | 180 | 0.9 | 0.9 | 0.00 | 0.00 | 0.00 | 56 | 1014.2 |
| 20260503025336 | 71 | 120 | 1.7 | 1.7 | 0.00 | 0.00 | 0.00 | 56 | 1014.4 |
| 20260503024833 | 71 | 199 | 0.0 | 0.9 | 0.00 | 0.00 | 0.00 | 56 | 1014.4 |
| 20260503024330 | 72 | 198 | 0.9 | 1.7 | 0.00 | 0.00 | 0.00 | 54 | 1014.6 |
| 20260503023826 | 72 | 199 | 0.9 | 0.9 | 0.00 | 0.00 | 0.00 | 55 | 1014.2 |
| 20260503023324 | 72 | 186 | 0.0 | 1.7 | 0.00 | 0.00 | 0.00 | 54 | 1014.2 |
| 20260503022820 | 73 | 187 | 0.9 | 1.7 | 0.00 | 0.00 | 0.00 | 54 | 1014.0 |
| 20260503022315 | 73 | 201 | 0.0 | 0.9 | 0.00 | 0.00 | 0.00 | 54 | 1014.3 |
| 20260503021811 | 74 | 345 | 2.6 | 4.3 | 0.00 | 0.00 | 0.00 | 52 | 1014.2 |
| 20260503021308 | 74 | 219 | 0.9 | 0.9 | 0.00 | 0.00 | 0.00 | 53 | 1014.2 |
| 20260503020805 | 74 | 227 | 1.7 | 1.7 | 0.00 | 0.00 | 0.00 | 54 | 1014.1 |
| 20260503020303 | 75 | 187 | 0.0 | 4.3 | 0.00 | 0.00 | 0.00 | 55 | 1014.3 |
| 20260503015759 | 75 | 224 | 0.0 | 1.7 | 0.00 | 0.00 | 0.00 | 55 | 1014.1 |
| 20260503015256 | 75 | 193 | 0.0 | 0.9 | 0.00 | 0.00 | 0.00 | 54 | 1014.2 |
| 20260503014752 | 75 | 234 | 1.7 | 4.3 | 0.00 | 0.00 | 0.00 | 54 | 1014.3 |
| 20260503014250 | 75 | 36 | 0.0 | 2.6 | 0.00 | 0.00 | 0.00 | 53 | 1014.4 |
| 20260503013747 | 77 | 214 | 0.0 | 2.6 | 0.00 | 0.00 | 0.00 | 52 | 1014.3 |
| 20260503013244 | 77 | 197 | 0.0 | 1.7 | 0.00 | 0.00 | 0.00 | 51 | 1014.3 |
| 20260503012741 | 77 | 207 | 0.0 | 1.7 | 0.00 | 0.00 | 0.00 | 52 | 1014.2 |
| 20260503012239 | 76 | 76 | 0.0 | 0.9 | 0.00 | 0.00 | 0.00 | 52 | 1014.2 |
| 20260503011735 | 75 | 208 | 0.0 | 4.3 | 0.00 | 0.00 | 0.00 | 53 | 1014.1 |
| 20260503011232 | 76 | 316 | 2.6 | 4.3 | 0.00 | 0.00 | 0.00 | 51 | 1014.3 |